SCP
0 0 0 0 0 0 0 0 0 0 0 0 0 0 0 0 0 0 0 0 0 0 0 0 0 0 0 0 0 0 0 0 0 0 0 0 0 0 0 0 0 0 0
0 0 0 0 0 0 0 0 0 0 0 0 0 0 0 0 0 0 0 0 0 0 0 0 -0 0 0 0 0 0 0 0 0 0 0 0 0 0 0 0 0 0 0
0 0 0 0 0 0 0 0 0 0 0 0 0 0 0 0 0 0 0 0 0 0 0 -0 -0 -0 0 0 0 0 0 0 0 0 0 0 0 0 0 0 0 0 0
0 0 0 0 0 0 0 0 0 0 0 0 0 0 0 0 0 0 0 0 0 0 0 -0 -0 0 0 0 0 0 0 0 0 0 0 0 0 0 0 0 0 0 0
0 0 0 0 0 0 0 0 0 0 0 0 0 0 0 0 0 0 0 0 0 0 0 0 0 0 0 0 0 -0 -0 -0 0 0 0 0 0 0 0 0 0 0 0
0 0 0 0 0 0 0 0 0 0 0 0 0 0 0 0 0 0 0 0 0 0 0 0 0 0 0 0 0 -0 -0 -0 -0 0 0 0 0 0 0 0 0 0 0
0 0 0 0 0 0 0 0 0 0 0 0 0 0 0 0 0 0 0 0 0 0 0 0 0 0 0 0 0 0 -0 -0 -0 -0 0 0 0 0 0 0 0 0 0
0 0 0 0 0 0 0 0 0 0 0 0 0 0 0 0 0 0 0 0 0 0 0 0 0 0 0 0 0 0 0 -0 -0 -0 0 0 0 0 0 0 0 0 0
0 0 0 0 0 0 0 0 0 0 0 0 0 0 0 0 0 0 0 0 0 0 0 0 0 0 0 0 0 0 0 -0 -0 -0 0 0 0 0 0 0 0 0 0
0 0 0 0 0 0 0 0 0 0 0 0 0 0 0 0 0 0 0 0 0 0 0 0 0 0 0 0 0 0 0 0 0 0 0 0 0 0 0 0 0 0 0
0 0 0 0 0 0 0 0 0 0 0 0 0 0 0 0 0 0 0 0 0 0 0 0 0 0 0 0 0 0 0 0 0 0 0 0 0 0 0 0 0 0 0
0 0 0 0 0 0 0 0 0 0 0 0 0 0 0 0 0 1 1 1 1 0 0 0 0 0 0 0 0 0 0 0 0 0 0 1 0 0 0 0 0 0 0
0 0 0 0 0 0 0 0 0 0 0 0 0 1 1 1 1 1 1 1 1 1 1 1 1 1 1 1 1 1 0 0 0 0 1 1 1 0 0 0 0 0 0
1 1 1 0 1 1 0 0 0 0 0 0 0 0 0 1 1 1 1 1 1 1 1 1 1 1 1 1 1 1 1 1 0 0 1 1 1 0 0 0 0 0 0
1 1 1 1 1 1 0 0 0 0 0 0 0 0 0 0 0 1 1 1 1 1 1 1 1 1 1 1 1 1 1 1 1 1 1 1 1 1 0 0 0 0 0
1 1 1 0 0 0 0 0 0 0 0 0 0 0 0 0 0 0 1 1 1 1 1 1 1 1 1 1 1 1 1 1 1 1 1 1 1 1 1 1 1 1 1
1 1 0 0 0 0 0 0 0 0 0 0 0 0 0 0 0 0 0 0 0 0 0 0 0 0 0 0 0 0 1 1 1 1 1 1 1 1 1 1 1 1 1
0 0 0 0 0 0 0 0 0 0 0 0 0 0 0 0 0 0 0 0 0 0 0 0 0 0 0 0 0 0 0 1 1 1 1 1 1 1 1 1 1 1 1
0 0 0 0 0 0 0 0 0 0 0 0 0 0 0 0 0 0 0 0 0 0 0 0 0 0 0 0 0 0 0 0 0 1 1 1 1 1 1 1 1 1 1
0 0 0 0 0 0 0 0 0 0 0 0 0 0 0 0 0 0 0 0 0 0 0 0 0 0 0 0 0 0 0 0 0 0 0 1 1 1 1 1 1 1 1
0 0 0 0 0 0 0 0 0 0 0 0 0 0 0 0 0 0 0 0 0 0 0 0 0 0 0 0 0 0 0 0 0 0 0 0 1 1 1 1 1 1 1
0 0 0 0 0 0 0 0 0 0 0 0 0 0 0 0 0 0 0 0 0 0 0 0 0 0 0 0 0 0 0 0 0 0 0 0 0 1 1 1 1 1 1
0 0 0 0 0 0 0 0 0 0 0 0 0 0 0 0 0 0 0 0 0 0 0 0 0 0 0 0 0 0 0 0 0 0 0 0 0 0 0 0 1 1 1
0 0 0 0 0 0 0 0 0 0 0 0 0 0 0 0 0 0 0 0 0 0 0 0 0 0 0 0 0 0 0 0 0 0 0 0 0 0 0 0 0 1 1
0 0 0 0 0 0 0 0 0 0 0 0 0 0 0 0 0 0 0 0 0 0 0 0 0 0 0 0 0 0 0 0 0 0 0 0 0 0 0 0 0 0 1
0 0 0 0 0 0 0 0 0 0 0 0 0 0 0 0 0 0 0 0 0 0 0 0 0 0 0 0 0 0 0 0 0 0 0 0 0 0 0 0 0 0 0
Wind_Speed
12 15 15 12 10 10 10 10 11 11 12 12 12 12 11 11 10 10 9 8 7 6 6 5 5 6 6 6 6 7 7 7 7 7 8 8 9 9 10 12 13 13 17
15 16 15 12 11 10 10 10 11 11 11 11 11 11 11 10 10 9 8 7 6 6 5 4 5 5 5 5 6 6 6 6 6 7 8 9 10 9 10 10 9 13 16
15 16 15 12 11 11 10 10 11 11 11 11 11 10 10 9 8 8 7 6 5 5 4 4 4 4 4 5 5 5 5 5 5 5 6 7 10 9 9 10 14 17 15
16 15 14 14 12 11 10 10 10 10 11 10 10 10 9 8 7 6 6 5 4 4 4 3 3 4 4 4 4 4 4 5 4 5 5 7 9 11 9 11 14 15 15
14 13 15 14 13 11 10 10 10 10 10 10 9 8 7 7 6 5 5 5 5 4 4 4 3 3 4 4 3 3 3 4 3 8 4 6 8 10 10 11 13 14 14
14 14 16 13 13 12 11 10 9 9 9 9 8 7 6 6 5 5 5 5 5 5 5 5 4 4 4 4 3 3 3 3 8 3 4 4 8 10 10 11 12 13 14
13 13 16 13 12 12 11 10 9 9 8 8 7 7 6 5 5 5 5 5 5 5 5 5 5 5 5 5 5 4 3 4 7 2 3 3 7 9 9 10 11 12 13
12 12 14 12 11 11 10 9 9 8 8 7 6 6 6 6 6 6 6 6 6 6 6 6 5 6 6 6 6 6 5 7 7 3 3 4 10 7 7 9 9 11 12
10 10 10 12 11 10 7 7 6 6 5 5 4 4 5 6 6 6 6 6 6 6 7 6 7 6 7 7 7 7 7 7 9 4 5 3 10 7 8 9 9 10 12
8 8 8 7 7 8 8 7 4 3 2 2 2 4 4 6 7 7 8 8 7 7 7 8 8 8 8 8 8 9 8 8 11 7 5 6 11 9 9 10 10 10 11
7 5 5 6 5 4 4 6 5 4 3 3 5 5 6 7 7 7 7 2 5 7 8 8 9 9 8 10 11 10 9 8 10 7 5 9 10 10 11 11 11 12 12
8 6 4 3 3 2 2 3 1 1 2 2 3 3 3 4 4 5 1 3 6 8 8 9 8 9 10 8 11 12 8 10 9 7 5 11 10 11 12 12 12 13 13
8 6 5 4 3 2 2 2 2 1 1 1 2 4 4 4 4 4 2 4 6 7 7 6 8 7 7 6 5 7 9 8 7 7 7 13 11 12 13 13 13 14 14
7 6 5 5 4 3 3 2 1 1 1 2 2 4 3 3 3 3 2 3 4 3 4 5 4 6 7 7 8 9 9 8 7 6 5 13 13 14 14 14 14 15 16
8 7 6 5 5 4 4 2 2 2 2 2 3 3 4 4 4 3 2 2 4 3 4 4 5 5 6 8 9 10 10 11 11 10 6 11 14 14 15 15 15 16 17
7 7 6 6 5 5 4 3 3 2 2 3 3 5 5 5 4 3 3 3 3 3 3 3 4 5 6 6 8 9 10 11 11 11 11 10 15 16 16 16 16 17 18
8 7 7 7 6 5 5 4 3 3 4 4 4 4 5 6 4 4 3 3 2 3 3 4 4 5 6 6 8 8 8 10 11 12 12 10 11 16 18 18 17 17 17
7 7 6 6 7 6 5 3 3 4 4 4 4 4 5 6 5 5 4 3 2 4 4 3 5 5 5 6 6 7 7 8 11 11 12 11 10 10 16 21 20 18 18
7 7 6 6 5 4 4 2 3 2 3 3 4 4 5 6 6 6 4 3 4 5 5 5 4 5 6 6 7 7 8 9 9 11 12 13 12 12 11 14 20 20 21
6 6 5 5 4 3 3 2 0 1 2 3 4 4 6 5 6 7 5 3 6 5 5 4 5 5 6 7 8 8 9 9 9 10 11 11 11 13 14 13 13 16 22
7 6 6 5 5 3 2 2 2 2 3 3 3 4 5 5 6 5 7 4 5 6 6 7 6 7 7 5 7 8 9 10 10 8 8 8 10 11 12 13 11 11 12
8 8 7 7 7 6 2 1 1 3 3 3 4 3 4 5 6 5 5 7 5 5 6 6 6 7 6 5 6 8 8 7 6 7 6 7 8 7 9 12 13 13 12
10 10 8 8 7 6 4 3 2 3 4 3 3 3 4 5 5 5 6 7 6 7 5 5 6 7 7 6 5 5 6 6 5 4 5 5 5 5 6 7 11 13 14
11 10 10 9 8 6 6 5 5 5 6 5 4 4 5 5 5 5 5 5 6 7 5 7 5 6 7 7 5 5 6 6 6 6 5 4 4 5 6 6 8 10 11
10 9 8 8 7 7 6 5 5 6 5 4 4 4 6 4 4 5 5 5 5 6 5 7 6 7 7 8 7 6 6 6 8 7 8 7 6 5 5 6 6 7 9
8 8 7 7 7 7 7 6 6 6 6 7 6 6 5 4 3 3 4 4 5 5 5 6 6 8 7 8 8 8 8 7 7 7 8 9 8 6 6 5 7 6 7
Wind_Direction
143 133 134 138 132 124 119 120 128 139 147 149 146 145 146 145 145 145 144 142 139 135 125 111 100 95 96 98 99 101 103 107 108 109 109 109 113 121 128 135 143 126 126
138 133 136 140 136 126 118 115 116 121 129 134 137 138 138 139 140 141 142 143 143 140 130 116 104 98 97 99 103 106 110 113 113 115 124 123 117 120 128 133 127 121 132
138 135 142 140 138 131 123 116 114 114 116 119 123 128 130 131 134 137 141 146 150 148 138 127 114 106 103 105 110 113 117 117 116 132 178 141 121 122 126 123 121 130 133
140 141 142 136 138 135 129 123 118 116 115 116 118 122 126 129 133 141 149 157 163 162 156 152 137 124 117 116 120 123 125 122 126 211 189 117 124 121 128 127 130 136 136
137 136 130 143 142 139 136 132 128 125 123 123 124 126 131 136 145 156 166 177 183 184 182 178 168 153 142 138 138 138 134 132 170 240 103 109 111 125 135 136 137 138 138
141 144 134 148 145 145 143 141 139 137 135 135 136 140 146 155 167 178 188 198 202 201 199 194 190 183 171 163 165 165 157 171 225 172 113 129 118 136 145 145 145 143 141
148 141 137 148 149 150 151 151 149 148 148 149 153 159 167 179 192 201 209 217 222 219 214 208 204 200 194 186 188 191 200 227 258 134 142 139 111 137 156 154 152 150 148
145 140 132 143 150 154 156 155 154 155 158 163 170 177 189 202 213 222 226 234 237 230 223 218 213 209 205 201 202 204 215 245 238 202 196 151 115 152 168 162 161 158 156
144 138 146 156 157 158 156 154 156 158 164 174 187 200 215 224 231 237 237 243 243 240 237 231 225 221 215 209 210 212 218 239 263 227 214 167 135 175 185 175 175 172 167
142 143 148 159 148 163 160 150 151 150 164 192 222 237 247 244 238 236 238 227 240 248 248 246 239 231 224 216 215 218 221 229 246 227 220 154 148 188 199 191 188 186 182
144 139 142 138 140 159 157 135 163 159 155 226 219 222 246 252 244 222 236 224 253 257 257 255 251 242 231 220 219 221 222 236 234 235 226 135 162 197 208 203 198 196 194
147 138 123 123 130 138 108 107 102 97 85 307 328 296 270 277 282 282 66 257 262 262 256 247 251 246 236 230 210 210 227 233 248 231 206 147 177 206 215 211 206 204 202
143 133 128 114 102 107 95 81 67 45 31 334 334 312 286 276 261 262 254 237 240 241 246 225 228 239 237 241 243 224 229 236 238 240 206 164 190 210 218 217 212 209 207
135 126 112 109 109 105 100 105 97 59 20 349 342 317 305 279 268 265 257 263 261 257 261 265 260 256 260 257 251 249 241 237 240 242 220 175 196 212 220 222 218 214 211
136 123 114 110 113 113 107 86 70 51 6 3 334 341 318 298 295 288 271 263 267 264 252 256 262 266 265 254 250 246 243 241 242 240 230 192 203 215 222 225 224 221 217
137 128 122 117 114 110 105 90 67 50 37 357 353 351 329 314 313 294 270 262 265 267 284 283 277 271 267 267 260 256 253 248 242 242 243 218 208 214 222 226 227 225 221
141 134 130 128 118 109 99 85 74 49 29 14 11 356 342 326 328 302 278 261 270 271 258 258 265 262 260 261 259 259 255 251 250 243 244 243 228 213 216 224 227 227 225
143 137 136 126 118 109 90 69 62 36 25 13 1 358 358 346 329 302 291 282 298 275 266 266 264 273 272 272 271 268 263 252 248 247 244 240 240 236 217 218 222 224 226
149 143 137 123 126 118 111 102 76 59 23 3 359 3 357 340 332 303 298 317 285 278 280 282 287 289 287 282 276 262 260 256 251 246 244 241 237 236 237 215 211 219 225
160 158 155 156 151 166 162 159 201 17 1 358 3 15 348 338 338 319 293 302 291 284 281 283 291 278 285 282 282 280 269 262 253 247 246 241 235 233 233 236 220 216 220
179 181 186 194 179 201 215 265 307 336 339 343 350 10 343 342 341 321 314 313 293 291 298 292 285 278 273 284 282 276 265 250 246 245 242 245 239 234 234 233 234 234 217
195 201 204 209 205 216 207 255 300 320 317 332 333 343 333 336 328 318 334 305 308 302 280 282 278 288 290 285 290 295 286 263 225 236 236 234 244 241 239 236 232 231 238
211 213 218 218 216 221 219 235 245 251 261 277 322 321 335 323 318 323 315 312 315 295 297 298 286 274 287 285 277 292 299 307 321 256 242 241 241 246 249 248 239 233 231
219 220 221 222 223 219 218 244 274 298 309 324 311 321 313 296 305 307 305 305 304 300 306 285 295 294 278 281 273 261 275 300 296 296 274 255 252 255 261 255 246 238 233
225 225 223 220 218 213 221 232 253 276 295 297 301 296 290 291 289 297 303 304 299 293 310 309 303 291 285 281 288 283 277 268 260 272 288 294 281 268 267 261 250 242 238
224 222 220 211 210 207 216 232 250 275 283 291 291 298 289 287 282 286 290 295 289 301 305 294 295 279 282 292 289 285 282 281 281 281 283 287 288 282 274 272 260 242 236